Skip Navigation Links
NOAA logo - Click to go to the NOAA homepage
NOAA's National Weather Service
Alaska Aviation Weather Unit
  NWS logo - Click to go to the NWS homepage
Left Navbar Graphic     23 AKDT = 07 GMT

   
NOAA is celebrating 200 years of science, service, and stewardship. Visit the NOAA 200th celebration Web site to learn more.
USA.gov is the U.S. Government's official Web portal to all Federal, state and local government Web resources and services.
Facebook
NWS on Facebook

Important Change Regarding the AAWU Web Presence

 

Over the last several months, the AAWU has been working to navigate its webpages to a nationally supported server. Security, as well as other needs, have necessitated the change.  In the process, we have made an effort to enhance the functionality of our website, as well as some of our products. As of June 20, 2017, aawu.arh.noaa.gov will be discontinued. The new AAWU web address is weather.gov/aawu. It is now live and will run in-parallel with the old site until it is discontinued. Please send any feedback or questions regarding the new webpages to nws.ar.aawu.webauthors@noaa.gov.  Thank you for your patience during this time of transition.
AAWU Home :: Display TAF Add Bookmark
TAF PANC 240521Z 2406/2512 VRB05KT P6SM SCT060 BKN100 OVC200
     FM241200 15011KT P6SM -SHRA SCT040 OVC060
     FM241400 14018G26KT 6SM -RA OVC025
     FM250000 15022G32KT P6SM -SHRA SCT025 BKN040 OVC070
     FM250600 17019G28KT P6SM SCT040 BKN070=

METAR PANC 240153Z 29009KT 10SM FEW050 FEW100 BKN250 11/03 A3002= METAR PANC 240253Z 28009KT 10SM FEW050 FEW100 BKN240 10/03 A3002= METAR PANC 240353Z 29007KT 10SM FEW050 FEW100 BKN230 09/03 A3002= METAR PANC 240453Z 31005KT 10SM FEW050 SCT100 BKN210 08/02 A3003= METAR PANC 240553Z 26010KT 10SM FEW060 SCT100 BKN200 08/03 A3003= METAR PANC 240653Z VRB03KT 10SM FEW060 SCT100 OVC200 08/03 A3003=
 Alaska TAF Map

NOAA's National Weather Service
Alaska Aviation Weather Unit
6930 Sand Lake Road
Anchorage, AK 99502-1845
Disclaimer
Credits
Glossary
Privacy Policy
About Us
Career Opportunities
Contact AAWU Internet Services Site last modified: April, 17th 2012